Wind_Speed
7 9 10 9 8 8 8 8 9 8 8 8 8 8 8 8 8 8 7 7 7 7 7 7 6 6 6 6 6 5 5 5 5 5 5 5 4 4 4 4 4 4 4
7 9 10 10 9 9 8 8 9 8 8 7 7 8 8 7 7 7 7 7 7 6 6 6 6 6 6 6 5 5 5 5 4 4 4 4 4 4 4 4 4 4 5
7 10 10 10 10 10 9 9 9 8 8 7 7 7 7 6 6 6 6 6 6 6 6 6 5 6 6 5 5 5 4 4 4 4 4 4 4 4 4 4 4 4 5
8 10 10 11 11 11 10 10 9 9 8 7 7 6 6 6 6 5 6 5 5 5 5 5 5 5 5 4 4 4 4 3 3 3 4 4 4 4 4 3 4 4 4
8 10 11 11 11 11 11 11 10 9 8 7 7 6 6 5 5 5 5 5 4 5 4 4 4 4 4 3 3 3 3 3 3 3 4 4 4 4 4 4 4 4 4
9 10 11 11 12 12 12 11 11 10 9 8 7 6 5 5 4 4 4 4 3 4 3 3 3 3 3 2 2 2 2 3 3 3 4 4 4 4 4 4 4 4 4
9 11 11 12 13 13 13 13 12 11 10 9 8 6 5 4 4 3 3 3 3 2 2 2 2 2 2 2 1 1 2 2 3 3 3 3 3 4 4 4 4 4 5
9 10 12 13 13 14 14 14 13 11 10 9 8 7 5 4 3 3 2 1 1 1 1 2 1 1 2 1 0 1 2 2 3 3 3 4 4 4 4 4 5 5 5
9 10 11 12 14 14 15 15 14 13 11 10 9 8 6 4 3 2 1 0 0 1 1 1 2 2 2 1 1 1 2 2 2 3 4 4 5 5 5 5 5 5 6
9 11 12 13 15 16 16 16 15 14 13 11 10 8 7 5 3 2 1 1 1 1 1 2 2 3 3 2 2 2 3 3 3 4 5 5 6 6 6 6 6 6 6
10 12 13 15 16 17 17 17 17 16 14 13 10 8 7 5 3 2 2 2 2 2 2 2 3 4 3 3 3 3 3 4 4 4 5 6 6 6 7 7 7 6 6
11 12 14 15 17 19 19 19 19 17 15 13 11 9 7 5 4 4 3 3 3 3 3 3 3 3 3 3 3 3 3 4 4 4 5 7 7 7 7 7 7 7 7
13 14 15 16 18 19 20 20 19 18 16 14 12 10 8 7 5 5 4 3 3 3 4 3 3 3 3 2 2 3 3 3 4 4 5 6 6 6 7 7 8 8 8
13 14 16 17 19 20 21 20 20 19 17 15 13 11 9 8 6 5 5 4 4 4 4 3 3 2 2 2 2 3 3 3 3 4 4 5 6 6 7 7 8 8 8
13 14 16 19 19 21 22 21 22 20 19 16 14 12 10 9 7 6 5 4 4 4 4 2 2 2 1 2 2 2 3 3 3 4 4 4 5 6 6 6 8 8 8
14 15 17 19 19 21 23 23 23 22 20 18 16 13 11 9 7 6 5 4 4 4 3 2 2 2 2 2 2 1 2 2 3 4 4 4 4 5 6 5 6 7 7
15 16 17 19 20 23 25 25 24 23 20 19 16 14 12 10 8 7 6 5 4 3 3 3 2 2 2 2 2 1 1 1 2 3 3 4 4 4 5 5 5 6 7
16 17 16 17 20 22 24 25 24 23 21 19 16 14 12 10 9 8 7 5 4 3 3 3 2 2 1 1 0 0 0 0 1 2 3 3 3 4 4 4 4 5 6
14 14 15 17 19 23 24 24 23 22 21 19 16 14 12 10 9 8 7 6 5 4 3 3 2 2 2 1 1 0 0 0 1 1 2 2 3 3 4 4 4 4 5
12 12 12 17 20 22 23 23 22 22 21 19 17 14 12 10 9 8 7 6 5 5 4 3 3 2 2 2 1 1 1 0 1 1 2 2 2 3 3 3 4 4 5
11 11 12 15 19 22 23 22 21 21 20 19 17 15 12 11 9 7 7 6 6 6 5 4 4 3 3 2 2 1 0 0 0 1 1 1 2 2 3 4 4 5 5
10 11 12 14 18 22 23 21 20 20 20 18 17 16 14 12 10 8 7 7 7 6 6 5 5 5 4 3 2 1 1 0 0 1 2 2 2 2 3 4 4 5 5
9 9 11 14 19 21 21 21 21 20 19 18 17 16 14 13 11 9 8 8 8 7 7 7 6 6 5 4 3 2 1 1 0 1 2 2 3 3 3 4 4 4 5
7 7 9 13 17 21 22 20 21 20 19 18 17 16 14 13 12 10 10 9 8 8 8 8 8 7 6 5 4 3 2 2 1 1 2 3 3 3 4 4 5 5 5
6 7 8 12 15 19 20 19 20 20 19 19 18 16 15 14 13 12 11 11 10 9 10 9 8 8 7 7 5 5 4 3 3 3 3 4 4 4 5 5 5 6 6
5 5 7 11 13 17 19 19 19 19 19 18 18 17 16 15 14 13 13 12 11 11 10 10 9 9 9 8 7 6 6 6 5 5 5 5 6 6 6 7 7 7 8
Wind_Direction
174 173 170 168 171 176 178 173 164 155 148 138 127 118 109 102 95 91 87 83 81 80 80 79 79 81 82 81 80 80 81 84 89 96 100 101 102 106 103 102 102 103 105
185 179 175 173 177 183 186 183 175 166 156 145 132 123 114 105 98 92 87 84 83 84 84 85 85 86 86 85 84 85 88 89 93 100 108 108 108 110 107 106 105 108 112
197 186 182 181 184 188 192 190 184 176 165 153 141 129 119 108 100 92 89 86 84 83 83 86 87 88 89 89 90 94 96 96 95 98 109 113 113 116 114 113 114 117 119
204 196 190 189 191 195 197 197 192 184 174 161 149 137 124 113 104 96 91 89 87 84 83 86 88 88 89 90 91 95 102 105 107 108 118 120 122 121 122 125 125 124 127
207 202 199 198 197 201 203 203 199 191 181 168 156 144 131 122 112 101 92 89 85 83 83 89 91 87 84 86 89 97 110 117 121 127 133 133 133 134 135 136 134 133 134
209 206 205 205 205 206 207 206 205 199 189 176 166 156 144 135 123 106 94 86 80 79 85 91 90 82 76 73 85 103 122 137 141 147 150 148 146 147 148 147 149 150 146
216 214 212 212 211 211 209 208 206 203 195 185 175 168 159 150 139 117 100 90 81 76 80 79 74 64 54 47 71 125 139 158 170 172 171 169 167 164 163 164 162 163 160
229 223 221 218 217 215 212 210 207 206 200 191 182 177 171 162 148 132 119 96 81 66 59 50 34 18 1 350 352 179 177 178 186 198 201 193 186 181 179 179 175 171 170
234 230 225 223 220 218 215 213 210 209 203 198 191 185 182 177 167 147 144 105 61 20 354 345 340 335 333 306 260 214 210 206 205 211 213 212 203 196 194 192 188 183 180
243 235 229 226 223 221 218 218 215 211 206 204 199 194 191 190 189 194 229 253 273 317 311 308 314 315 311 284 258 239 230 225 231 226 223 223 217 210 204 200 199 197 192
252 241 231 228 226 224 219 219 219 214 208 207 205 203 202 204 211 224 242 259 273 295 301 300 304 309 301 282 265 249 237 236 242 244 236 230 227 221 214 210 207 207 203
261 247 234 231 227 225 223 220 218 216 214 212 210 210 211 219 230 234 248 261 271 286 296 293 292 294 289 281 266 262 245 240 246 249 244 234 231 229 221 218 213 212 209
265 253 242 236 230 226 224 220 218 217 216 214 213 215 220 228 239 243 250 266 278 292 302 296 284 274 270 273 261 253 250 248 245 245 245 238 234 232 225 222 218 217 217
267 253 245 240 232 225 221 220 220 218 217 217 217 219 227 235 243 253 252 267 279 292 299 291 272 262 262 266 263 257 249 247 245 245 243 240 238 238 233 232 233 226 226
268 254 246 240 232 224 220 218 218 218 218 218 220 223 230 241 249 254 254 262 272 283 282 279 255 252 265 272 272 257 252 245 248 250 250 247 244 236 236 237 235 231 230
272 258 249 239 232 225 221 219 218 218 219 220 222 225 231 240 250 256 251 253 267 267 254 255 243 242 259 280 276 258 254 243 247 255 259 252 249 244 241 242 237 238 236
270 262 252 241 232 223 220 219 219 219 219 220 220 224 231 238 245 248 249 251 252 237 226 235 244 238 242 274 269 239 260 253 246 252 254 252 255 256 252 249 248 249 247
267 261 247 233 223 216 215 217 218 218 218 220 220 223 228 235 237 239 242 240 226 221 217 222 225 226 230 257 258 235 265 244 242 259 264 263 262 259 261 259 258 259 258
267 259 237 227 220 214 214 216 217 218 219 221 223 223 227 229 229 230 229 223 213 208 207 205 206 211 208 196 158 134 88 241 257 282 272 269 271 270 264 264 268 271 266
270 259 238 226 219 215 213 213 215 219 219 221 225 224 226 224 222 221 216 210 204 204 201 200 203 195 186 180 163 129 61 29 288 298 286 279 282 280 269 271 275 275 275
273 258 243 230 217 213 213 211 215 217 218 223 224 221 222 221 218 219 213 207 206 206 201 197 195 184 175 172 173 173 176 44 18 324 303 294 292 293 281 282 286 281 280
270 258 243 228 216 212 210 210 213 214 217 220 220 218 217 216 216 216 213 210 207 203 197 194 190 183 179 180 182 183 193 123 26 8 353 336 315 304 299 298 298 290 288
275 258 238 223 212 210 211 214 215 215 215 216 217 217 216 217 217 216 214 210 204 200 197 193 189 188 189 191 194 197 193 178 187 335 334 332 327 314 304 301 298 298 298
273 254 234 217 209 209 212 212 213 213 213 214 217 217 217 217 217 215 215 208 204 202 201 198 197 198 201 206 207 209 210 220 257 297 314 317 317 316 315 309 304 302 302
280 252 230 215 210 210 208 207 209 211 214 216 218 218 217 217 217 214 213 208 209 208 206 204 205 206 212 217 221 225 230 242 258 280 294 305 306 307 310 310 306 304 304
299 260 234 216 208 207 207 209 210 213 216 218 220 219 218 218 216 216 215 214 213 213 213 213 215 217 222 225 228 234 242 250 259 270 283 294 297 300 302 303 303 304 301
Height
5891 5892 5893 5893 5894 5895 5896 5897 5897 5898 5898 5898 5898 5899 5899 5899 5899 5899 5899 5899 5899 5899 5899 5899 5899 5898 5898 5898 5897 5897 5897 5897 5896 5896 5896 5896 5895 5895 5894 5894 5894 5893 5893
5891 5891 5892 5893 5894 5895 5896 5897 5897 5897 5898 5898 5898 5899 5899 5899 5899 5899 5899 5899 5899 5899 5899 5899 5899 5899 5898 5898 5898 5897 5897 5897 5897 5896 5896 5896 5896 5896 5895 5895 5895 5894 5894
5890 5890 5891 5893 5894 5895 5896 5896 5897 5897 5898 5898 5898 5899 5899 5899 5899 5899 5899 5899 5899 5899 5899 5899 5899 5899 5898 5898 5898 5898 5897 5897 5897 5897 5896 5896 5896 5896 5896 5896 5895 5895 5895
5889 5889 5890 5892 5893 5894 5895 5896 5896 5897 5897 5898 5898 5898 5899 5899 5899 5899 5899 5899 5899 5899 5899 5899 5899 5899 5899 5898 5898 5898 5897 5897 5897 5897 5896 5896 5896 5896 5897 5896 5896 5896 5896
5887 5888 5889 5891 5892 5893 5894 5895 5896 5896 5897 5897 5898 5898 5898 5899 5899 5899 5899 5899 5899 5899 5899 5899 5899 5899 5898 5898 5898 5897 5897 5897 5897 5897 5897 5896 5897 5897 5897 5897 5897 5897 5897
5886 5887 5888 5889 5890 5892 5893 5894 5895 5895 5896 5896 5897 5898 5898 5899 5899 5899 5899 5899 5899 5899 5899 5899 5898 5898 5898 5898 5898 5897 5897 5897 5897 5897 5896 5896 5897 5897 5897 5897 5898 5898 5898
5885 5886 5887 5888 5889 5890 5891 5892 5893 5894 5895 5896 5896 5897 5898 5898 5898 5899 5899 5899 5899 5899 5898 5898 5898 5898 5898 5897 5897 5897 5897 5896 5897 5896 5896 5896 5897 5897 5897 5898 5898 5898 5898
5883 5884 5885 5886 5887 5888 5890 5891 5892 5893 5894 5895 5896 5897 5897 5898 5898 5898 5898 5898 5898 5898 5898 5897 5897 5897 5897 5897 5896 5896 5896 5896 5896 5896 5896 5896 5896 5897 5897 5897 5898 5898 5898
5881 5882 5883 5884 5885 5886 5888 5889 5891 5892 5893 5894 5895 5896 5896 5897 5897 5898 5898 5898 5898 5898 5897 5897 5897 5896 5896 5896 5895 5895 5895 5895 5896 5896 5896 5896 5896 5896 5897 5897 5898 5898 5898
5879 5880 5880 5881 5883 5884 5885 5887 5889 5890 5891 5892 5893 5894 5895 5896 5896 5897 5897 5897 5897 5897 5897 5896 5896 5896 5895 5895 5895 5895 5895 5895 5895 5895 5895 5895 5895 5896 5896 5897 5897 5898 5898
5877 5877 5877 5879 5880 5882 5883 5885 5887 5888 5889 5890 5892 5893 5894 5895 5895 5896 5896 5896 5896 5896 5896 5896 5895 5895 5894 5894 5894 5894 5894 5894 5894 5894 5894 5894 5895 5895 5896 5896 5896 5897 5898
5874 5874 5875 5876 5878 5879 5881 5883 5884 5886 5887 5889 5890 5892 5893 5893 5894 5895 5895 5895 5895 5895 5895 5894 5894 5894 5893 5893 5893 5893 5893 5893 5893 5893 5893 5893 5893 5894 5894 5895 5896 5896 5897
5871 5872 5872 5873 5875 5877 5878 5880 5882 5883 5885 5887 5889 5890 5891 5892 5893 5893 5893 5894 5894 5894 5893 5893 5893 5893 5892 5892 5892 5892 5892 5892 5891 5892 5892 5892 5892 5893 5893 5894 5894 5895 5896
5868 5868 5869 5870 5872 5874 5875 5877 5880 5881 5883 5885 5887 5888 5890 5891 5891 5892 5892 5892 5893 5892 5892 5892 5892 5892 5891 5891 5891 5891 5891 5891 5891 5891 5891 5891 5891 5892 5892 5893 5893 5894 5895
5864 5864 5864 5866 5868 5870 5872 5874 5877 5879 5881 5883 5885 5887 5888 5889 5890 5890 5891 5891 5891 5891 5891 5891 5891 5891 5891 5891 5890 5890 5890 5890 5890 5890 5890 5890 5890 5891 5891 5891 5892 5892 5893
5860 5860 5860 5861 5863 5866 5869 5872 5874 5877 5879 5881 5883 5885 5886 5887 5888 5889 5889 5890 5890 5890 5890 5890 5890 5890 5890 5890 5890 5889 5889 5889 5889 5889 5889 5889 5889 5890 5890 5890 5891 5891 5892
5855 5855 5855 5857 5859 5862 5865 5868 5871 5874 5876 5878 5880 5882 5884 5886 5887 5887 5888 5888 5889 5889 5889 5889 5890 5890 5890 5889 5889 5889 5889 5889 5888 5888 5888 5888 5889 5889 5889 5889 5890 5890 5890
5851 5850 5850 5852 5854 5857 5861 5865 5868 5871 5873 5876 5878 5880 5882 5884 5885 5886 5887 5887 5888 5888 5888 5889 5889 5889 5889 5889 5889 5889 5889 5888 5888 5888 5888 5888 5888 5888 5888 5888 5889 5889 5889
5847 5846 5846 5848 5851 5854 5858 5861 5865 5868 5871 5873 5876 5878 5880 5882 5883 5884 5885 5886 5886 5887 5888 5888 5889 5889 5889 5889 5889 5889 5889 5888 5888 5888 5888 5887 5887 5887 5887 5888 5888 5888 5888
5843 5843 5843 5845 5848 5851 5855 5859 5863 5866 5869 5871 5874 5876 5878 5880 5881 5883 5883 5884 5885 5886 5887 5887 5888 5889 5889 5889 5889 5889 5889 5888 5888 5888 5888 5887 5887 5887 5887 5887 5887 5887 5887
5840 5840 5841 5843 5845 5849 5852 5856 5860 5863 5867 5869 5872 5874 5876 5878 5880 5881 5882 5883 5885 5885 5886 5887 5887 5888 5889 5889 5889 5889 5889 5888 5888 5888 5888 5887 5887 5887 5887 5886 5886 5886 5886
5837 5837 5838 5840 5843 5846 5850 5854 5857 5861 5864 5867 5870 5872 5874 5876 5878 5879 5881 5882 5883 5884 5885 5886 5887 5888 5888 5889 5889 5889 5889 5890 5889 5888 5888 5887 5887 5887 5886 5886 5886 5885 5885
5835 5834 5835 5837 5840 5843 5847 5851 5855 5858 5861 5865 5868 5870 5872 5874 5876 5878 5880 5881 5882 5883 5884 5885 5886 5887 5888 5889 5889 5889 5890 5889 5889 5889 5888 5887 5887 5887 5886 5886 5885 5885 5884
5833 5832 5833 5834 5837 5841 5845 5849 5852 5856 5859 5863 5865 5868 5870 5872 5874 5876 5878 5880 5881 5882 5883 5884 5885 5886 5887 5888 5888 5889 5889 5889 5889 5889 5888 5888 5887 5886 5886 5885 5885 5884 5884
5831 5831 5831 5833 5835 5838 5842 5846 5850 5854 5857 5860 5863 5865 5868 5870 5873 5875 5876 5878 5880 5881 5882 5883 5884 5886 5887 5887 5888 5888 5888 5888 5888 5888 5888 5887 5887 5886 5886 5885 5884 5884 5883
5830 5830 5830 5832 5834 5837 5841 5844 5848 5851 5854 5857 5860 5863 5866 5869 5871 5873 5874 5876 5878 5880 5881 5882 5883 5884 5885 5886 5887 5887 5887 5887 5887 5887 5887 5886 5886 5885 5885 5884 5883 5883 5882